[[{"header":{"parameterUnit":"m.s-1","parameterCategory":1,"la1":30.2992,"la2":30.254,"lo1":-89.0895,"lo2":-89.0443,"dy":0.0025,"dx":0.0025,"nx":19,"ny":19,"refTime":"2026-04-04T03:00:00:Z","depth":0,"parameterNumber":2,"parameterNumberName":"U-component_of_WINDS"},"data":[0,0,0,-1.4505,-1.4507,-1.4604,-1.4604,-1.4725,-1.4726,0,0,0,0,0,0,0,0,0,0,0,-1.4474,-1.4475,-1.4505,-1.4507,-1.4604,-1.4604,-1.4724,-1.4726,0,0,0,0,0,0,0,0,0,0,0,-1.4474,-1.4474,-1.4475,-1.4508,-1.4604,-1.4604,-1.4724,-1.4652,0,0,0,0,0,0,0,0,0,0,-1.4559,-1.4528,-1.4474,-1.4475,-1.4508,-1.4604,-1.4604,-1.4649,-1.4657,-1.4679,0,-1.4698,0,-1.4714,-1.4733,-1.4734,0,0,0,-1.4509,-1.4521,-1.455,-1.4475,-1.4509,-1.4603,-1.4561,-1.4653,-1.4662,-1.469,-1.47,-1.4704,-1.4716,-1.4734,-1.4735,-1.4856,-1.4856,0,0,-1.4504,-1.449,-1.4543,-1.4555,-1.454,-1.4558,-1.4564,-1.4659,-1.4669,-1.47,-1.4707,-1.4718,-1.4735,-1.4736,-1.4856,-1.4856,0,0,0,-1.4487,-1.4486,-1.4512,-1.455,-1.4568,-1.456,-1.4567,-1.4665,-1.4675,-1.4708,-1.4719,-1.4736,-1.4737,-1.4855,-1.4856,-1.4865,0,0,0,-1.4484,-1.4476,-1.451,-1.4502,-1.4566,-1.4617,-1.4571,-1.4668,-1.4679,-1.4718,-1.4736,-1.4738,-1.4855,-1.4855,-1.4864,-1.4872,0,0,0,-1.4468,-1.4475,-1.4488,-1.4501,-1.4542,-1.4616,-1.4631,-1.4671,-1.4686,-1.4734,-1.4738,-1.4854,-1.4855,-1.4863,-1.487,-1.4899,0,0,0,-1.4448,-1.4495,-1.4488,-1.4545,-1.4542,-1.4622,-1.4631,-1.4691,-1.4734,-1.4736,-1.4855,-1.4856,-1.4862,-1.4869,-1.4898,-1.4921,-1.4929,0,0,-1.4499,-1.4501,-1.4535,-1.4532,-1.4609,-1.4608,-1.4687,-1.474,-1.4757,-1.4822,-1.4825,-1.4864,-1.487,-1.4899,-1.4983,-1.499,0,0,0,-1.4547,-1.4571,-1.4595,-1.4635,-1.4676,-1.4712,-1.4754,-1.4774,-1.483,-1.4788,-1.4884,-1.4887,-1.4905,-1.4917,-1.4922,-1.4938,-1.4861,-1.4861,-1.486,-1.4599,-1.4619,-1.4678,-1.471,-1.4749,-1.4792,-1.4825,-1.4859,-1.4868,-1.489,-1.4909,-1.4958,-1.4971,-1.4975,-1.4992,-1.4924,-1.4924,-1.4924,-1.4924,-1.4676,-1.4713,-1.4725,-1.4786,-1.4807,-1.4859,-1.4903,-1.4908,-1.4959,-1.4945,-1.4962,-1.4944,-1.4982,-1.4997,-1.4925,-1.4925,-1.4925,-1.4925,-1.4925,-1.4711,-1.4733,-1.4756,-1.4817,-1.4861,-1.4893,-1.4941,-1.4959,-1.4977,-1.4993,-1.5015,-1.5015,-1.5016,-1.5003,-1.5003,-1.5003,-1.5003,-1.5003,-1.5004,-1.4738,-1.4764,-1.4803,-1.4852,-1.488,-1.492,-1.4965,-1.4993,-1.503,-1.5039,-1.5039,-1.5045,-1.4982,-1.4965,-1.5006,-1.5006,-1.5005,-1.5005,-1.5005,-1.4806,-1.4794,-1.4854,-1.4882,-1.4941,-1.4984,-1.5008,-1.5065,-1.5091,-1.5114,-1.5118,-1.5069,-1.5071,-1.5067,-1.5053,-1.5114,-1.5114,-1.5114,-1.5114,-1.4835,-1.4839,-1.4904,-1.4949,-1.4995,-1.5022,-1.5089,-1.5125,-1.516,-1.5178,-1.5172,-1.5156,-1.515,-1.5156,-1.515,-1.5137,-1.5218,-1.5218,-1.5218,-1.4878,-1.4887,-1.4941,-1.4975,-1.5023,-1.5064,-1.5128,-1.5179,-1.5216,-1.5223,-1.5192,-1.5188,-1.5161,-1.5152,-1.5156,-1.5146,-1.5123,0,0]},{"header":{"parameterUnit":"m.s-1","parameterCategory":1,"la1":30.2992,"la2":30.254,"lo1":-89.0895,"lo2":-89.0443,"dy":0.0025,"dx":0.0025,"nx":19,"ny":19,"refTime":"2026-04-04T03:00:00:Z","depth":0,"parameterNumber":3,"parameterNumberName":"V-component_of_WINDS"},"data":[0,0,0,3.2606,3.2605,3.2542,3.2542,3.2468,3.2467,0,0,0,0,0,0,0,0,0,0,0,3.2631,3.2631,3.2607,3.2605,3.2542,3.2542,3.2468,3.2467,0,0,0,0,0,0,0,0,0,0,0,3.2632,3.2631,3.2631,3.2605,3.2542,3.2542,3.2468,3.2513,0,0,0,0,0,0,0,0,0,0,3.2573,3.2602,3.2631,3.2631,3.2605,3.2542,3.2542,3.2515,3.251,3.25,0,3.2495,0,3.248,3.2463,3.2463,0,0,0,3.26,3.2606,3.2584,3.2631,3.2604,3.2542,3.2569,3.2512,3.2507,3.2494,3.2494,3.2491,3.2479,3.2463,3.2462,3.2429,3.2429,0,0,3.2603,3.2623,3.2588,3.2581,3.2593,3.2571,3.2567,3.2509,3.2509,3.2494,3.2489,3.2478,3.2462,3.2462,3.2429,3.2429,0,0,0,3.2617,3.2625,3.2604,3.2584,3.2573,3.2569,3.2565,3.2511,3.2503,3.2488,3.2477,3.2462,3.2461,3.2429,3.2429,3.2453,0,0,0,3.2619,3.2633,3.2606,3.2617,3.2574,3.2542,3.2569,3.2507,3.25,3.2477,3.2462,3.246,3.2428,3.2429,3.2452,3.2461,0,0,0,3.2633,3.2635,3.2628,3.2618,3.2592,3.2542,3.253,3.2505,3.2493,3.2463,3.246,3.2428,3.2429,3.2451,3.2459,3.2458,0,0,0,3.2654,3.2649,3.2629,3.2619,3.2593,3.2558,3.253,3.2503,3.248,3.2462,3.2428,3.2429,3.2451,3.2458,3.2457,3.246,3.2463,0,0,3.2659,3.265,3.2643,3.2623,3.2598,3.2566,3.2543,3.2502,3.248,3.2447,3.2446,3.2452,3.2459,3.2458,3.2475,3.2478,0,0,0,3.2651,3.2647,3.2635,3.2616,3.2586,3.2561,3.2522,3.2507,3.2478,3.2468,3.2451,3.2454,3.2453,3.2453,3.2455,3.2453,3.243,3.243,3.243,3.2685,3.266,3.2646,3.2613,3.2594,3.2555,3.2536,3.2509,3.2487,3.2484,3.2473,3.2488,3.2489,3.249,3.2488,3.2473,3.2473,3.2473,3.2473,3.2689,3.2678,3.2652,3.2629,3.2602,3.2582,3.2544,3.253,3.2506,3.2493,3.249,3.2478,3.2494,3.2491,3.2475,3.2475,3.2474,3.2474,3.2474,3.2708,3.2699,3.2682,3.2651,3.263,3.2596,3.2576,3.2551,3.2527,3.2525,3.2511,3.251,3.2506,3.252,3.252,3.252,3.252,3.252,3.252,3.2734,3.2715,3.2702,3.2671,3.2655,3.2632,3.2593,3.2576,3.2551,3.2534,3.2534,3.2513,3.2501,3.2499,3.2521,3.2521,3.2521,3.2521,3.2521,3.2747,3.2741,3.272,3.2705,3.2667,3.2648,3.2618,3.2586,3.2568,3.2559,3.2539,3.2534,3.2523,3.2521,3.2519,3.2545,3.2545,3.2545,3.2545,3.2763,3.2756,3.273,3.2707,3.2682,3.2653,3.2629,3.2599,3.2567,3.2554,3.2547,3.2542,3.2541,3.2531,3.2528,3.2526,3.2553,3.2553,3.2553,3.2769,3.2759,3.2744,3.2715,3.2684,3.2658,3.2635,3.2608,3.257,3.2552,3.2544,3.2544,3.2535,3.2534,3.2515,3.2512,3.2507,0,0]}]]